Station Historical Data
Daily Summary for October 11, 2017 Units:  Metric    English   Both
« Previous Day
Next Day »
Daily Weekly Monthly Yearly Custom
  High: Low: Average:
Temperature: 16 °C 10.7 °C 12.8 °C
Dew Point: 10.7 °C 9.1 °C 9.7 °C
Humidity: 90% 67% 82%
Wind Speed: 24.1km/h 0km/h 10km/h
Wind Gust: 43.5km/h - -
Wind- - NE
Pressure: 1022.6 hPa 1019.9 hPa -
Precipitation: 0 mm    
Historical Graphs
 
 
Tabular Data for October 11, 2017
Time Temperature Dew Point Pressure Wind Wind Speed Wind Gust Humidity Rainfall Rate (Hourly)
00:04 16 °C 10.1 °C 1021.6 hPa NE 1.6 km/h 4.8 km/h 68% 0 mm
00:09 16 °C 10.1 °C 1021.6 hPa Calm   6.4 km/h 68% 0 mm
00:14 16 °C 10.3 °C 1021.6 hPa Calm     69% 0 mm
00:19 15.9 °C 10.2 °C 1021.6 hPa Calm   4.8 km/h 69% 0 mm
00:24 15.8 °C 10.4 °C 1021.9 hPa Calm   4.8 km/h 70% 0 mm
00:29 15.7 °C 10.3 °C 1021.6 hPa Calm   1.6 km/h 70% 0 mm
00:34 15.7 °C 10.3 °C 1021.6 hPa Calm   3.2 km/h 70% 0 mm
00:44 15.7 °C 10.3 °C 1021.6 hPa NE 3.2 km/h 11.3 km/h 70% 0 mm
00:49 15.7 °C 10.3 °C 1021.6 hPa NE 4.8 km/h 6.4 km/h 70% 0 mm
00:54 15.7 °C 10.2 °C 1021.2 hPa NE 3.2 km/h 8 km/h 70% 0 mm
00:59 15.6 °C 10.2 °C 1021.6 hPa NE 3.2 km/h 6.4 km/h 70% 0 mm
01:04 15.6 °C 10.1 °C 1021.6 hPa NE 3.2 km/h 6.4 km/h 70% 0 mm
01:09 15.5 °C 9.8 °C 1021.6 hPa NE 3.2 km/h 9.7 km/h 69% 0 mm
01:14 15.5 °C 9.6 °C 1021.6 hPa ENE 3.2 km/h 6.4 km/h 68% 0 mm
01:19 15.4 °C 9.3 °C 1021.6 hPa NE 4.8 km/h 12.9 km/h 67% 0 mm
01:24 15.4 °C 9.3 °C 1021.2 hPa ENE 4.8 km/h 12.9 km/h 67% 0 mm
01:29 15.4 °C 9.6 °C 1021.2 hPa NE 6.4 km/h 12.9 km/h 68% 0 mm
01:34 15.4 °C 9.5 °C 1021.2 hPa NE 4.8 km/h 11.3 km/h 68% 0 mm
01:39 15.3 °C 9.7 °C 1021.2 hPa ENE 3.2 km/h 11.3 km/h 69% 0 mm
01:44 15.3 °C 9.6 °C 1021.2 hPa ENE 3.2 km/h 11.3 km/h 69% 0 mm
01:54 15.1 °C 9.7 °C 1021.2 hPa Calm   6.4 km/h 70% 0 mm
01:59 15 °C 9.6 °C 1021.2 hPa NE 3.2 km/h 8 km/h 70% 0 mm
02:04 15.1 °C 9.6 °C 1020.9 hPa NE 4.8 km/h 12.9 km/h 70% 0 mm
02:09 15 °C 9.6 °C 1020.9 hPa NE 4.8 km/h 14.5 km/h 70% 0 mm
02:14 14.9 °C 9.7 °C 1020.9 hPa ENE 4.8 km/h 14.5 km/h 71% 0 mm
02:19 14.9 °C 9.7 °C 1020.9 hPa ENE 11.3 km/h 11.3 km/h 71% 0 mm
02:24 14.8 °C 9.6 °C 1020.9 hPa NE 1.6 km/h 11.3 km/h 71% 0 mm
02:29 14.8 °C 9.8 °C 1020.9 hPa NE 1.6 km/h 4.8 km/h 72% 0 mm
02:34 14.7 °C 9.5 °C 1020.9 hPa NE 3.2 km/h 14.5 km/h 71% 0 mm
02:39 14.7 °C 9.7 °C 1020.9 hPa ENE 6.4 km/h 11.3 km/h 72% 0 mm
02:44 14.7 °C 9.7 °C 1020.9 hPa NE 4.8 km/h 14.5 km/h 72% 0 mm
02:49 14.6 °C 9.6 °C 1020.9 hPa NE 4.8 km/h 14.5 km/h 72% 0 mm
02:54 14.6 °C 9.6 °C 1020.9 hPa ENE 3.2 km/h 14.5 km/h 72% 0 mm
02:59 14.6 °C 9.6 °C 1020.9 hPa ENE 3.2 km/h 12.9 km/h 72% 0 mm
03:04 14.6 °C 9.6 °C 1021.2 hPa ENE 4.8 km/h 12.9 km/h 72% 0 mm
03:09 14.6 °C 9.6 °C 1020.9 hPa ENE 8 km/h 12.9 km/h 72% 0 mm
03:14 14.6 °C 9.6 °C 1020.9 hPa NE 4.8 km/h 12.9 km/h 72% 0 mm
03:19 14.5 °C 9.5 °C 1020.5 hPa NE 3.2 km/h 11.3 km/h 72% 0 mm
03:24 14.5 °C 9.5 °C 1020.5 hPa ENE 1.6 km/h 12.9 km/h 72% 0 mm
03:29 14.4 °C 9.6 °C 1020.5 hPa NE 8 km/h 17.7 km/h 73% 0 mm
03:34 14.3 °C 9.6 °C 1020.9 hPa ENE 4.8 km/h 12.9 km/h 73% 0 mm
03:39 14.3 °C 9.6 °C 1020.5 hPa NE 4.8 km/h 12.9 km/h 73% 0 mm
03:44 14.3 °C 9.5 °C 1020.5 hPa ENE 6.4 km/h 11.3 km/h 73% 0 mm
03:49 14.3 °C 9.5 °C 1020.9 hPa ENE 4.8 km/h 11.3 km/h 73% 0 mm
03:54 14.2 °C 9.6 °C 1020.9 hPa ENE 1.6 km/h 8 km/h 74% 0 mm
03:59 14.2 °C 9.6 °C 1020.9 hPa Calm   6.4 km/h 74% 0 mm
04:04 14.1 °C 9.5 °C 1020.9 hPa NE 3.2 km/h 6.4 km/h 74% 0 mm
04:09 14 °C 9.6 °C 1020.9 hPa Calm   8 km/h 75% 0 mm
04:14 13.9 °C 9.6 °C 1020.9 hPa NE 1.6 km/h 8 km/h 75% 0 mm
04:19 13.9 °C 9.7 °C 1020.9 hPa Calm     76% 0 mm
04:24 13.8 °C 9.5 °C 1020.9 hPa NE 4.8 km/h 11.3 km/h 75% 0 mm
04:29 13.9 °C 9.6 °C 1020.5 hPa North 3.2 km/h 9.7 km/h 75% 0 mm
04:34 13.9 °C 9.6 °C 1020.5 hPa ENE 6.4 km/h 11.3 km/h 75% 0 mm
04:39 13.9 °C 9.6 °C 1020.5 hPa ENE 4.8 km/h 14.5 km/h 75% 0 mm
04:44 13.9 °C 9.6 °C 1020.5 hPa ENE 4.8 km/h 14.5 km/h 75% 0 mm
04:49 13.9 °C 9.6 °C 1020.9 hPa ENE 4.8 km/h 12.9 km/h 75% 0 mm
04:54 13.8 °C 9.5 °C 1020.9 hPa ENE 6.4 km/h 14.5 km/h 75% 0 mm
04:59 13.9 °C 9.7 °C 1020.9 hPa ENE 4.8 km/h 14.5 km/h 76% 0 mm
05:09 13.9 °C 9.7 °C 1021.2 hPa ENE 4.8 km/h 11.3 km/h 76% 0 mm
05:19 13.8 °C 9.6 °C 1020.9 hPa ENE 4.8 km/h 14.5 km/h 76% 0 mm
05:24 13.8 °C 9.6 °C 1020.5 hPa NE 6.4 km/h 17.7 km/h 76% 0 mm
05:29 13.8 °C 9.6 °C 1020.9 hPa NE 6.4 km/h 17.7 km/h 76% 0 mm
05:34 13.8 °C 9.6 °C 1020.9 hPa NE 8 km/h 14.5 km/h 76% 0 mm
05:39 13.8 °C 9.8 °C 1020.9 hPa NE 3.2 km/h 14.5 km/h 77% 0 mm
05:44 13.8 °C 9.8 °C 1020.5 hPa NE 16.1 km/h 20.9 km/h 77% 0 mm
05:49 13.8 °C 9.8 °C 1020.5 hPa NE 8 km/h 20.9 km/h 77% 0 mm
05:54 13.8 °C 9.8 °C 1020.5 hPa NE 12.9 km/h 14.5 km/h 77% 0 mm
05:59 13.8 °C 9.8 °C 1020.9 hPa ENE 4.8 km/h 16.1 km/h 77% 0 mm
06:04 13.8 °C 9.8 °C 1020.9 hPa East 8 km/h 16.1 km/h 77% 0 mm
06:09 13.8 °C 9.8 °C 1020.5 hPa ENE 8 km/h 16.1 km/h 77% 0 mm
06:14 13.8 °C 9.8 °C 1019.9 hPa ENE 6.4 km/h 17.7 km/h 77% 0 mm
06:19 13.8 °C 9.8 °C 1020.2 hPa ENE 8 km/h 19.3 km/h 77% 0 mm
06:24 13.8 °C 9.8 °C 1020.5 hPa ENE 8 km/h 19.3 km/h 77% 0 mm
06:29 13.8 °C 9.8 °C 1020.9 hPa NE 3.2 km/h 17.7 km/h 77% 0 mm
06:34 13.8 °C 10 °C 1020.9 hPa NE 6.4 km/h 12.9 km/h 78% 0 mm
06:39 13.8 °C 10 °C 1021.2 hPa ENE 4.8 km/h 14.5 km/h 78% 0 mm
06:44 13.8 °C 10 °C 1021.2 hPa ENE 12.9 km/h 16.1 km/h 78% 0 mm
06:49 13.8 °C 10 °C 1021.2 hPa NE 6.4 km/h 14.5 km/h 78% 0 mm
06:54 13.8 °C 10.1 °C 1020.9 hPa NE 8 km/h 22.5 km/h 78% 0 mm
06:59 13.8 °C 10 °C 1020.5 hPa ENE 17.7 km/h 22.5 km/h 78% 0 mm
07:19 13.7 °C 10.2 °C 1020.9 hPa ENE 6.4 km/h 14.5 km/h 79% 0 mm
07:24 13.7 °C 10.2 °C 1020.9 hPa NE 19.3 km/h 19.3 km/h 79% 0 mm
07:29 13.8 °C 10.2 °C 1020.9 hPa NE 9.7 km/h 20.9 km/h 79% 0 mm
07:34 13.8 °C 10.2 °C 1020.9 hPa NE 9.7 km/h 20.9 km/h 79% 0 mm
07:39 13.8 °C 10.4 °C 1020.9 hPa ENE 8 km/h 20.9 km/h 80% 0 mm
07:44 13.8 °C 10.4 °C 1020.9 hPa ENE 9.7 km/h 20.9 km/h 80% 0 mm
07:49 13.9 °C 10.5 °C 1021.2 hPa NE 11.3 km/h 20.9 km/h 80% 0 mm
07:54 13.9 °C 10.6 °C 1021.2 hPa NE 9.7 km/h 22.5 km/h 80% 0 mm
07:59 13.9 °C 10.6 °C 1021.2 hPa NE 3.2 km/h 20.9 km/h 80% 0 mm
08:04 13.9 °C 10.6 °C 1021.2 hPa NE 11.3 km/h 25.7 km/h 80% 0 mm
08:09 14 °C 10.6 °C 1021.2 hPa ENE 11.3 km/h 22.5 km/h 80% 0 mm
08:14 14 °C 10.6 °C 1021.6 hPa NE 6.4 km/h 22.5 km/h 80% 0 mm
08:19 14 °C 10.6 °C 1021.2 hPa ENE 14.5 km/h 27.4 km/h 80% 0 mm
08:24 14 °C 10.6 °C 1021.2 hPa NE 9.7 km/h 19.3 km/h 80% 0 mm
08:29 14.1 °C 10.7 °C 1021.6 hPa ENE 8 km/h 19.3 km/h 80% 0 mm
08:34 14.1 °C 10.7 °C 1021.6 hPa ENE 9.7 km/h 19.3 km/h 80% 0 mm
08:39 14.1 °C 10.7 °C 1021.6 hPa NE 11.3 km/h 22.5 km/h 80% 0 mm
08:44 14.1 °C 10.7 °C 1021.6 hPa NE 12.9 km/h 22.5 km/h 80% 0 mm
08:49 14.1 °C 10.7 °C 1021.6 hPa NE 12.9 km/h 24.1 km/h 80% 0 mm
08:54 14.1 °C 10.7 °C 1021.6 hPa NE 9.7 km/h 25.7 km/h 80% 0 mm
08:59 14.1 °C 10.7 °C 1021.6 hPa NNE 8 km/h 22.5 km/h 80% 0 mm
09:04 14.2 °C 10.6 °C 1021.6 hPa NE 12.9 km/h 24.1 km/h 79% 0 mm
09:09 14.1 °C 10.5 °C 1021.6 hPa NE 12.9 km/h 25.7 km/h 79% 0 mm
09:14 14.2 °C 10.6 °C 1021.6 hPa NE 12.9 km/h 24.1 km/h 79% 0 mm
09:19 14.2 °C 10.4 °C 1021.6 hPa NE 17.7 km/h 25.7 km/h 78% 0 mm
09:24 14.2 °C 10.4 °C 1021.9 hPa ENE 12.9 km/h 29 km/h 78% 0 mm
09:29 14.2 °C 10.4 °C 1021.6 hPa ENE 14.5 km/h 29 km/h 78% 0 mm
09:34 14.1 °C 10.3 °C 1021.6 hPa NE 19.3 km/h 27.4 km/h 78% 0 mm
09:39 14 °C 10.1 °C 1021.6 hPa ENE 20.9 km/h 29 km/h 77% 0 mm
09:44 13.9 °C 10 °C 1021.2 hPa ENE 19.3 km/h 29 km/h 77% 0 mm
09:54 14 °C 9.8 °C 1021.2 hPa ENE 16.1 km/h 43.5 km/h 76% 0 mm
09:59 14 °C 9.8 °C 1021.2 hPa ENE 16.1 km/h 43.5 km/h 76% 0 mm
10:04 14 °C 9.6 °C 1021.6 hPa ENE 14.5 km/h 32.2 km/h 75% 0 mm
10:09 13.9 °C 9.6 °C 1021.6 hPa ENE 14.5 km/h 29 km/h 75% 0 mm
10:14 13.9 °C 9.6 °C 1021.6 hPa NE 12.9 km/h 27.4 km/h 75% 0 mm
10:19 13.9 °C 9.6 °C 1021.2 hPa ENE 19.3 km/h 22.5 km/h 75% 0 mm
10:24 13.9 °C 9.7 °C 1020.9 hPa NE 17.7 km/h 32.2 km/h 76% 0 mm
10:29 13.7 °C 9.6 °C 1020.9 hPa NE 9.7 km/h 29 km/h 76% 0 mm
10:34 13.6 °C 9.6 °C 1021.2 hPa NE 16.1 km/h 33.8 km/h 77% 0 mm
10:39 13.4 °C 9.6 °C 1021.2 hPa ENE 22.5 km/h 29 km/h 78% 0.25 mm
10:44 13.2 °C 9.6 °C 1021.2 hPa ENE 19.3 km/h 25.7 km/h 79% 0.25 mm
10:49 13 °C 9.6 °C 1020.9 hPa ENE 14.5 km/h 32.2 km/h 80% 0.51 mm
10:54 12.8 °C 9.7 °C 1020.9 hPa ENE 16.1 km/h 32.2 km/h 81% 0.51 mm
10:59 12.8 °C 9.6 °C 1020.9 hPa NE 16.1 km/h 29 km/h 81% 0.76 mm
11:04 12.7 °C 9.7 °C 1020.9 hPa NE 12.9 km/h 29 km/h 82% 0.76 mm
11:09 12.7 °C 9.7 °C 1021.2 hPa NE 12.9 km/h 22.5 km/h 82% 0.76 mm
11:14 12.7 °C 9.8 °C 1021.2 hPa NNE 20.9 km/h 22.5 km/h 83% 0.76 mm
11:19 12.8 °C 9.9 °C 1021.2 hPa NNE 16.1 km/h 22.5 km/h 83% 0.76 mm
11:24 12.8 °C 10 °C 1021.6 hPa ENE 12.9 km/h 24.1 km/h 83% 1.02 mm
11:29 12.8 °C 10 °C 1021.2 hPa ENE 8 km/h 22.5 km/h 83% 1.02 mm
11:34 12.9 °C 10.2 °C 1021.6 hPa ESE 6.4 km/h 22.5 km/h 84% 1.02 mm
11:39 12.9 °C 10.2 °C 1021.6 hPa NE 4.8 km/h 17.7 km/h 84% 0.76 mm
11:44 12.9 °C 10.1 °C 1021.6 hPa ESE 8 km/h 25.7 km/h 83% 0.76 mm
11:49 12.9 °C 10.3 °C 1021.6 hPa ENE 12.9 km/h 29 km/h 84% 0.51 mm
11:54 13.1 °C 10.2 °C 1021.6 hPa ENE 12.9 km/h 29 km/h 83% 0.51 mm
11:59 13.1 °C 10.3 °C 1021.6 hPa ENE 11.3 km/h 29 km/h 83% 0.25 mm
12:04 13.1 °C 10.2 °C 1021.9 hPa ENE 11.3 km/h 25.7 km/h 83% 0.25 mm
12:09 13 °C 10.2 °C 1021.6 hPa ENE 11.3 km/h 25.7 km/h 83% 0.25 mm
12:14 12.9 °C 10.1 °C 1021.6 hPa NE 11.3 km/h 24.1 km/h 83% 0.25 mm
12:19 12.9 °C 10.1 °C 1021.9 hPa ENE 8 km/h 20.9 km/h 83% 0.25 mm
12:24 12.9 °C 10.1 °C 1021.9 hPa ENE 8 km/h 24.1 km/h 83% 0.25 mm
12:29 12.8 °C 10.2 °C 1021.9 hPa ENE 6.4 km/h 19.3 km/h 84% 0.25 mm
12:34 12.8 °C 10.2 °C 1022.6 hPa NE 6.4 km/h 14.5 km/h 84% 0.51 mm
12:39 12.7 °C 10.3 °C 1022.6 hPa NE 8 km/h 14.5 km/h 85% 0.76 mm
12:44 12.7 °C 10.2 °C 1021.9 hPa NE 8 km/h 17.7 km/h 85% 0.76 mm
12:49 12.7 °C 10.4 °C 1021.9 hPa NE 9.7 km/h 17.7 km/h 86% 0.76 mm
12:54 12.6 °C 10.3 °C 1021.9 hPa NE 9.7 km/h 22.5 km/h 86% 1.02 mm
12:59 12.6 °C 10.4 °C 1021.9 hPa NE 4.8 km/h 17.7 km/h 87% 1.27 mm
13:04 12.6 °C 10.5 °C 1021.6 hPa NE 11.3 km/h 19.3 km/h 87% 1.27 mm
13:09 12.6 °C 10.5 °C 1021.6 hPa NE 11.3 km/h 22.5 km/h 87% 1.27 mm
13:24 12.5 °C 10.4 °C 1021.6 hPa NE 3.2 km/h 24.1 km/h 87% 1.27 mm
13:29 12.4 °C 10.5 °C 1021.6 hPa NE 16.1 km/h 22.5 km/h 88% 1.27 mm
13:34 12.4 °C 10.5 °C 1021.6 hPa NE 6.4 km/h 20.9 km/h 88% 1.02 mm
13:39 12.4 °C 10.5 °C 1021.6 hPa NE 11.3 km/h 20.9 km/h 88% 0.76 mm
13:44 12.4 °C 10.4 °C 1021.6 hPa NE 9.7 km/h 19.3 km/h 88% 1.02 mm
13:49 12.3 °C 10.3 °C 1020.9 hPa ENE 12.9 km/h 29 km/h 88% 1.02 mm
13:54 12.2 °C 10.3 °C 1021.2 hPa ENE 11.3 km/h 32.2 km/h 88% 0.76 mm
13:59 12.2 °C 10.3 °C 1021.2 hPa NE 12.9 km/h 27.4 km/h 88% 0.51 mm
14:04 12.3 °C 10.3 °C 1021.2 hPa NE 11.3 km/h 27.4 km/h 88% 0.51 mm
14:09 12.2 °C 10.1 °C 1021.6 hPa NE 11.3 km/h 24.1 km/h 87% 0.25 mm
14:14 12.2 °C 10.1 °C 1021.6 hPa NE 11.3 km/h 24.1 km/h 87% 0.25 mm
14:19 12.2 °C 10.1 °C 1021.2 hPa NE 11.3 km/h 24.1 km/h 87% 0.25 mm
14:29 12.2 °C 10.1 °C 1021.6 hPa NNE 19.3 km/h 30.6 km/h 87% 0.25 mm
14:34 12.2 °C 9.9 °C 1021.6 hPa NE 4.8 km/h 27.4 km/h 86% 0.25 mm
14:39 12.2 °C 9.9 °C 1021.6 hPa ENE 17.7 km/h 27.4 km/h 86% 0.25 mm
14:44 12.2 °C 9.9 °C 1021.2 hPa ENE 8 km/h 24.1 km/h 86% 0 mm
14:49 12.2 °C 9.9 °C 1021.2 hPa NE 11.3 km/h 32.2 km/h 86% 0 mm
14:54 12.2 °C 9.9 °C 1020.9 hPa NE 19.3 km/h 30.6 km/h 86% 0 mm
14:59 12.2 °C 9.9 °C 1020.9 hPa ENE 8 km/h 20.9 km/h 86% 0 mm
15:04 12.2 °C 9.9 °C 1020.5 hPa NE 12.9 km/h 27.4 km/h 86% 0 mm
15:09 12.2 °C 9.9 °C 1020.2 hPa NE 14.5 km/h 27.4 km/h 86% 0 mm
15:14 12.2 °C 9.9 °C 1020.2 hPa ENE 16.1 km/h 43.5 km/h 86% 0 mm
15:19 12.1 °C 9.8 °C 1020.2 hPa ENE 19.3 km/h 43.5 km/h 86% 0 mm
15:24 12.1 °C 9.8 °C 1020.2 hPa ENE 17.7 km/h 32.2 km/h 86% 0 mm
15:29 12 °C 9.7 °C 1020.5 hPa East 17.7 km/h 29 km/h 86% 0 mm
15:34 11.9 °C 9.7 °C 1020.2 hPa ENE 14.5 km/h 29 km/h 86% 0 mm
15:39 11.9 °C 9.6 °C 1020.2 hPa NE 19.3 km/h 30.6 km/h 86% 0 mm
15:44 11.9 °C 9.7 °C 1019.9 hPa NE 14.5 km/h 29 km/h 86% 0 mm
15:49 11.9 °C 9.5 °C 1019.9 hPa NE 19.3 km/h 30.6 km/h 85% 0 mm
15:54 11.9 °C 9.5 °C 1020.2 hPa NE 12.9 km/h 29 km/h 85% 0 mm
15:59 11.9 °C 9.4 °C 1019.9 hPa ENE 17.7 km/h 35.4 km/h 85% 0 mm
16:04 11.9 °C 9.4 °C 1020.2 hPa ENE 17.7 km/h 35.4 km/h 85% 0 mm
16:09 11.9 °C 9.4 °C 1020.9 hPa ENE 12.9 km/h 29 km/h 85% 0 mm
16:14 11.8 °C 9.4 °C 1021.2 hPa NE 9.7 km/h 24.1 km/h 85% 0 mm
16:24 11.9 °C 9.7 °C 1020.5 hPa ENE 17.7 km/h 29 km/h 86% 0 mm
16:29 12 °C 9.6 °C 1020.2 hPa ENE 6.4 km/h 37 km/h 85% 0.25 mm
16:34 12.1 °C 9.6 °C 1020.5 hPa ENE 14.5 km/h 37 km/h 85% 0.51 mm
16:39 12 °C 9.6 °C 1020.2 hPa ENE 14.5 km/h 27.4 km/h 85% 0.76 mm
16:44 11.8 °C 9.4 °C 1019.9 hPa ENE 19.3 km/h 37 km/h 85% 0.76 mm
16:49 11.7 °C 9.3 °C 1020.2 hPa NNE 8 km/h 40.2 km/h 85% 0.76 mm
16:54 11.7 °C 9.3 °C 1020.2 hPa NE 9.7 km/h 24.1 km/h 85% 1.02 mm
16:59 11.7 °C 9.4 °C 1020.2 hPa NE 9.7 km/h 27.4 km/h 86% 1.02 mm
17:04 11.6 °C 9.3 °C 1020.5 hPa NE 12.9 km/h 27.4 km/h 86% 1.02 mm
17:09 11.6 °C 9.3 °C 1020.5 hPa NE 12.9 km/h 27.4 km/h 86% 1.02 mm
17:14 11.5 °C 9.2 °C 1020.5 hPa NE 12.9 km/h 30.6 km/h 86% 1.02 mm
17:19 11.6 °C 9.3 °C 1020.5 hPa NE 16.1 km/h 22.5 km/h 86% 1.02 mm
17:24 11.5 °C 9.2 °C 1020.9 hPa ENE 12.9 km/h 20.9 km/h 86% 1.02 mm
17:34 11.4 °C 9.2 °C 1021.2 hPa NE 9.7 km/h 22.5 km/h 86% 0.51 mm
17:39 11.4 °C 9.2 °C 1021.2 hPa NE 9.7 km/h 22.5 km/h 86% 0.51 mm
17:44 11.4 °C 9.1 °C 1021.2 hPa NE 4.8 km/h 24.1 km/h 86% 1.02 mm
17:49 11.3 °C 9.2 °C 1020.5 hPa ENE 14.5 km/h 25.7 km/h 87% 1.27 mm
17:54 11.2 °C 9.1 °C 1020.2 hPa ENE 17.7 km/h 25.7 km/h 87% 1.52 mm
17:59 11.2 °C 9.1 °C 1020.2 hPa NE 16.1 km/h 33.8 km/h 87% 1.52 mm
18:04 11.1 °C 9.2 °C 1020.5 hPa NE 14.5 km/h 33.8 km/h 88% 1.78 mm
18:09 11.1 °C 9.2 °C 1020.9 hPa NE 8 km/h 22.5 km/h 88% 1.78 mm
18:14 11.1 °C 9.2 °C 1020.5 hPa ENE 12.9 km/h 19.3 km/h 88% 1.78 mm
18:29 11.1 °C 9.2 °C 1020.5 hPa NE 9.7 km/h 24.1 km/h 88% 1.78 mm
18:34 11 °C 9.1 °C 1020.5 hPa NE 11.3 km/h 24.1 km/h 88% 1.78 mm
18:39 11 °C 9.3 °C 1020.9 hPa NE 12.9 km/h 24.1 km/h 89% 1.52 mm
18:44 11 °C 9.3 °C 1020.5 hPa NE 4.8 km/h 24.1 km/h 89% 1.02 mm
18:49 10.9 °C 9.2 °C 1020.5 hPa NE 12.9 km/h 24.1 km/h 89% 0.76 mm
18:54 10.9 °C 9.2 °C 1020.9 hPa NE 11.3 km/h 24.1 km/h 89% 0.25 mm
18:59 10.9 °C 9.2 °C 1020.9 hPa NE 8 km/h 22.5 km/h 89% 0.25 mm
19:04 11 °C 9.3 °C 1020.9 hPa NE 4.8 km/h 16.1 km/h 89% 0 mm
19:09 11 °C 9.3 °C 1021.2 hPa ENE 8 km/h 19.3 km/h 89% 0 mm
19:14 10.9 °C 9.2 °C 1021.2 hPa NE 4.8 km/h 17.7 km/h 89% 0 mm
19:19 10.9 °C 9.2 °C 1021.6 hPa NE 6.4 km/h 20.9 km/h 89% 0 mm
19:24 10.9 °C 9.2 °C 1021.6 hPa NNE 4.8 km/h 19.3 km/h 89% 0 mm
19:29 10.9 °C 9.2 °C 1021.9 hPa NE 6.4 km/h 19.3 km/h 89% 0 mm
19:34 11 °C 9.3 °C 1021.9 hPa NE 6.4 km/h 22.5 km/h 89% 0 mm
19:39 10.9 °C 9.2 °C 1022.2 hPa NE 9.7 km/h 25.7 km/h 89% 0.25 mm
19:44 11 °C 9.3 °C 1021.9 hPa NE 9.7 km/h 25.7 km/h 89% 0.25 mm
19:49 10.9 °C 9.2 °C 1021.9 hPa NE 9.7 km/h 25.7 km/h 89% 0.25 mm
19:54 10.9 °C 9.4 °C 1021.9 hPa ENE 20.9 km/h 25.7 km/h 90% 0.25 mm
19:59 10.9 °C 9.4 °C 1021.9 hPa ENE 6.4 km/h 24.1 km/h 90% 0.25 mm
20:04 10.9 °C 9.4 °C 1021.9 hPa NNE 4.8 km/h 24.1 km/h 90% 0.51 mm
20:09 10.9 °C 9.4 °C 1022.2 hPa NE 3.2 km/h 19.3 km/h 90% 0.51 mm
20:14 10.9 °C 9.4 °C 1022.2 hPa NE 11.3 km/h 20.9 km/h 90% 0.51 mm
20:19 10.9 °C 9.3 °C 1022.2 hPa NNE 8 km/h 27.4 km/h 90% 0.51 mm
20:24 10.9 °C 9.3 °C 1022.2 hPa NNE 4.8 km/h 16.1 km/h 90% 0.76 mm
20:29 10.8 °C 9.3 °C 1022.2 hPa NE 8 km/h 19.3 km/h 90% 0.76 mm
20:34 10.8 °C 9.3 °C 1022.2 hPa NE 9.7 km/h 22.5 km/h 90% 0.76 mm
20:39 10.8 °C 9.2 °C 1021.9 hPa NE 11.3 km/h 30.6 km/h 90% 0.51 mm
20:44 10.7 °C 9.2 °C 1021.6 hPa NE 11.3 km/h 29 km/h 90% 0.51 mm
20:49 10.7 °C 9.1 °C 1021.6 hPa NE 16.1 km/h 32.2 km/h 90% 0.51 mm
20:54 10.7 °C 9.1 °C 1021.2 hPa ENE 16.1 km/h 40.2 km/h 90% 0.51 mm
20:59 10.7 °C 9.2 °C 1021.2 hPa ENE 16.1 km/h 40.2 km/h 90% 0.51 mm
21:04 10.7 °C 9.2 °C 1021.6 hPa NE 17.7 km/h 35.4 km/h 90% 0.25 mm
21:09 10.8 °C 9.2 °C 1021.6 hPa NE 8 km/h 35.4 km/h 90% 0.25 mm
21:14 10.8 °C 9.2 °C 1021.6 hPa NE 12.9 km/h 32.2 km/h 90% 0.25 mm
21:19 10.8 °C 9.3 °C 1021.6 hPa ENE 14.5 km/h 35.4 km/h 90% 0.25 mm
21:24 10.9 °C 9.3 °C 1021.6 hPa NE 16.1 km/h 35.4 km/h 90% 0.25 mm
21:29 10.9 °C 9.3 °C 1021.6 hPa ENE 14.5 km/h 27.4 km/h 90% 0.25 mm
21:34 10.9 °C 9.3 °C 1021.9 hPa ENE 16.1 km/h 27.4 km/h 90% 0.25 mm
21:39 10.9 °C 9.3 °C 1021.9 hPa NE 17.7 km/h 37 km/h 90% 0.25 mm
21:44 10.9 °C 9.3 °C 1022.2 hPa NE 14.5 km/h 27.4 km/h 90% 0.25 mm
21:49 10.9 °C 9.3 °C 1022.6 hPa NE 12.9 km/h 27.4 km/h 90% 0.51 mm
21:54 10.9 °C 9.2 °C 1022.6 hPa NE 12.9 km/h 27.4 km/h 89% 0.51 mm
21:59 10.9 °C 9.2 °C 1022.2 hPa NE 12.9 km/h 29 km/h 89% 0.51 mm
22:04 10.8 °C 9.1 °C 1022.2 hPa NE 12.9 km/h 29 km/h 89% 0.51 mm
22:09 10.8 °C 9.1 °C 1022.2 hPa NE 14.5 km/h 29 km/h 89% 0.51 mm
22:14 10.9 °C 9.2 °C 1022.2 hPa NE 8 km/h 25.7 km/h 89% 0.51 mm
22:19 10.8 °C 9.1 °C 1022.2 hPa NE 12.9 km/h 22.5 km/h 89% 0.51 mm
22:24 10.9 °C 9.2 °C 1022.2 hPa NE 22.5 km/h 35.4 km/h 89% 0.25 mm
22:29 10.8 °C 9.1 °C 1022.2 hPa NE 11.3 km/h 33.8 km/h 89% 0.25 mm
22:34 10.8 °C 9.1 °C 1021.9 hPa NE 24.1 km/h 30.6 km/h 89% 0.25 mm
22:39 10.8 °C 9.1 °C 1021.9 hPa NE 11.3 km/h 27.4 km/h 89% 0.25 mm
22:44 10.9 °C 9.2 °C 1021.9 hPa NE 22.5 km/h 29 km/h 89% 0.25 mm
22:49 10.9 °C 9.2 °C 1021.9 hPa ENE 14.5 km/h 29 km/h 89% 0 mm
22:54 10.9 °C 9.2 °C 1021.9 hPa ENE 12.9 km/h 22.5 km/h 89% 0 mm
22:59 10.9 °C 9.2 °C 1021.9 hPa NE 12.9 km/h 27.4 km/h 89% 0 mm
23:04 10.9 °C 9.2 °C 1021.9 hPa NNE 6.4 km/h 24.1 km/h 89% 0 mm
23:14 10.9 °C 9.2 °C 1021.9 hPa ENE 12.9 km/h 25.7 km/h 89% 0 mm
23:19 10.9 °C 9.2 °C 1022.2 hPa NE 12.9 km/h 27.4 km/h 89% 0 mm
23:24 10.9 °C 9.2 °C 1022.2 hPa NE 11.3 km/h 27.4 km/h 89% 0 mm
23:29 11 °C 9.3 °C 1021.9 hPa ENE 11.3 km/h 20.9 km/h 89% 0 mm
23:34 11 °C 9.3 °C 1021.9 hPa ENE 12.9 km/h 24.1 km/h 89% 0 mm
23:39 11 °C 9.3 °C 1021.9 hPa NE 19.3 km/h 29 km/h 89% 0 mm
23:44 11 °C 9.3 °C 1022.2 hPa ENE 12.9 km/h 20.9 km/h 89% 0 mm
23:49 11 °C 9.3 °C 1022.2 hPa ENE 11.3 km/h 24.1 km/h 89% 0 mm
23:54 11.1 °C 9.3 °C 1022.2 hPa NE 6.4 km/h 29 km/h 89% 0 mm
23:59 11.1 °C 9.3 °C 1022.2 hPa NE 6.4 km/h 17.7 km/h 89% 0 mm
Buffalo, New York, USA
Compliments of Weather Underground - 2.25 mb